Terug naar catalogus

COSMOS 2491 DEB

ActiefPO
NORAD 44998·DEBRIS·🇷🇺 Russia

Gelanceerd Dec 25, 2013 vanaf Plesetsk Cosmodrome

Loading…

Volgende Passages (komende 24 uur)

TLE

VerouderendSource: Space-Track

Epoch: Sep 3, 2026, 19:34 UTC

1 44998U 13076S   26246.81596739  .00001201  00000-0  60799-2 0  9996
2 44998  82.4691  59.4163 0091548 326.3818  33.1488 12.67872650307250

Volg COSMOS 2491 DEB in realtime met AllMySat

Download on the App Store